User: anonymous   Login
Location: Bear Valley Meadows
(40.9851°N, 123.0761°W)
Time: 12:44:24
(UTC+00:00)
Language:

NOSS 0 Rocket - Orbit

View from above orbital plane
View from above orbital plane
View from above satellite
View from above satellite

Ground track
Ground track

The orbit data is extracted from the following two-line orbital elements,

1 05679U 71110B   24200.94318901  .00000096  00000-0  12935-3 0  9998
2 05679  69.9976  26.5636 0015077 289.0735  70.8732 13.85527513272634
Epoch (UTC): 18 July 2024 22:38:11
Eccentricity: 0.0015077
inclination: 69.9976°
perigee height: 933 km
apogee height: 955 km
right ascension of ascending node: 26.5636°
argument of perigee: 289.0735°
revolutions per day: 13.85527513
mean anomaly at epoch: 70.8732°
orbit number at epoch: 27263

The dashed part of the orbit path shows where the satellite is in the earth's shadow,  

DLR